Regional Weather Roundup
Issued by NWS

Home | Current Version | Previous Version | Graphics & Text | Print | Product List | Glossary On
Versions: 1 2 3 4 5 6 7 8 9 10 11 12 13 14 15 16 17 18 19 20 21 22 23 24 25 26 27 28 29 30 31 32 33 34 35 36 37 38 39 40 41 42 43 44 45 46 47 48 49 50
880
ASUS43 KMKX 281411
RWRWI

WISCONSIN REGIONAL WEATHER ROUNDUP
NATIONAL WEATHER SERVICE MILWAUKEE/SULLIVAN WI
900 AM CDT TUE MAR 28 2017

NOTE: "FAIR" INDICATES FEW OR NO CLOUDS BELOW 12,000 FEET WITH NO
SIGNIFICANT WEATHER AND/OR OBSTRUCTIONS TO VISIBILITY.

WIZ001-002-006>008-014>016-023>028-281500-
NORTHWEST WISCONSIN

CITY           SKY/WX    TMP DP  RH WIND       PRES   REMARKS
SUPERIOR ARPT  SUNNY     34  32  93 CALM      30.15S
ASHLAND        SUNNY     37  34  89 S6        30.15R WCI  32
HAYWARD        SUNNY     38  29  70 N3        30.14R
SIREN          SUNNY     37  32  83 CALM      30.14R
CUMBERLAND     SUNNY     36  32  87 CALM      30.13R
RICE LAKE      SUNNY     35  33  92 CALM      30.15R
CHETEK         SUNNY     34  32  91 CALM      30.15R
LADYSMITH      SUNNY     38  33  82 E3        30.15R
EAU CLAIRE     FOG       31  31 100 NE3       30.14R VSB 1/4
MENOMONIE      SUNNY     34  34 100 CALM      30.14R
NEW RICHMOND   SUNNY     39  39 100 CALM      30.14R
OSCEOLA        SUNNY     39  39 100 E5        30.16S
$$

WIZ003>005-009-010-017-018-281500-
NORTH CENTRAL WISCONSIN

CITY           SKY/WX    TMP DP  RH WIND       PRES   REMARKS
MANITOWISH WTR SUNNY     35  34  96 CALM      30.12F
ARBOR VITAE    SUNNY     37  35  96 CALM      30.11S
WOODRUFF       SUNNY     37  35  96 CALM      30.11S
RHINELANDER    SUNNY     35  32  88 CALM      30.13R
EAGLE RIVER    SUNNY     33  33 100 CALM      30.12S
LAND O LAKES   SUNNY     36  33  87 N3        30.14S
PHILLIPS       SUNNY     32  31  96 CALM      30.13R
TOMAHAWK       SUNNY     33  32  97 CALM      30.14R
MEDFORD        SUNNY     35  34  94 E3        30.12S
MERRILL        SUNNY     32  32 100 CALM      30.14R
$$

WIZ029-030-035-036-043>047-281500-
CENTRAL WISCONSIN

CITY           SKY/WX    TMP DP  RH WIND       PRES   REMARKS
WAUSAU         SUNNY     35  33  92 N3        30.12S
MOSINEE        FOG       34  34 100 CALM      30.14  VSB 1/4
MARSHFIELD     CLOUDY    35  34  96 E5        30.12R FOG     WCI  31
STEVENS POINT  MOSUNNY   39  35  85 CALM      30.14S
WAUPACA        SUNNY     45  38  77 N6        30.14R
WAUTOMA        PTSUNNY   43  36  76 VRB3      30.14R
WISC RAPIDS    CLOUDY    41  36  82 CALM      30.15R
CAMP DOUGLAS   PTSUNNY   43  39  87 E3        30.13R
$$

WIZ011>013-019>022-031-037>040-048>050-281500-
NORTHEAST WISCONSIN

CITY           SKY/WX    TMP DP  RH WIND       PRES   REMARKS
ANTIGO         SUNNY     33  33 100 NE3       30.13R
SHAWANO        SUNNY     38  37  96 CALM      30.14S
OCONTO         SUNNY     37  33  86 NE6       30.14R WCI  32
STURGEON BAY   FOG       34  33  96 E5        30.12F VSB 1/2 WCI  30
GREEN BAY      SUNNY     40  38  93 N7        30.14R
MANITOWOC      SUNNY     40  34  79 N8        30.14R WCI  34
APPLETON       MOSUNNY   39  37  93 N6        30.12R WCI  35
CLINTONVILLE   SUNNY     37  34  87 NE5       30.14R WCI  34
OSHKOSH        SUNNY     42  36  79 NE7       30.13R
$$

WIZ032>034-041-042-053>061-281500-
SOUTHWEST WISCONSIN

CITY           SKY/WX    TMP DP  RH WIND       PRES   REMARKS
LA CROSSE      FOG       35  35 100 CALM      30.14R VSB<1/4
SPARTA         CLOUDY    41  38  91 CALM      30.14S
VIROQUA        CLOUDY    42  38  86 NE7       30.11S
BOSCOBEL       CLOUDY    45  41  86 CALM      30.13R
PRAIRIE DU CHI CLOUDY    45  40  85 NE6       30.11S
PLATTEVILLE    CLOUDY    43  43 100 E13       30.11S
$$

WIZ056-057-062-063-064-067-068-281500-
SOUTH CENTRAL WISCONSIN

CITY           SKY/WX    TMP DP  RH WIND       PRES   REMARKS
REEDSBURG      CLOUDY    41  40  95 NE6       30.13R
BARABOO/DELLS  CLOUDY    41  38  89 NE5       30.13R
LONE ROCK      CLOUDY    44  37  76 NE12      30.13R
MINERAL POINT  CLOUDY    43  43 100 NE8       30.11R FOG
MADISON        CLOUDY    42  36  79 NE6       30.12R
MIDDLETON      CLOUDY    42  39  91 NE9       30.13R
WATERTOWN      CLOUDY    41  38  91 N7        30.11S
MONROE         CLOUDY    41  39  93 NE9       30.11R
JANESVILLE     CLOUDY    43  37  81 NE10      30.11R
$$

WIZ051-052-058>065-066-070>072-281500-
SOUTHEAST WISCONSIN

CITY           SKY/WX    TMP DP  RH WIND       PRES   REMARKS
MILWAUKEE      CLOUDY    42  36  79 N12       30.11S
WAUKESHA       CLOUDY    39  34  81 N3        30.12R
MILWAUKEE/TIMM CLOUDY    41  34  75 N8        30.12R
RACINE         CLOUDY    41  37  86 N9        30.12S
KENOSHA        CLOUDY    40  37  89 N9        30.11R FOG     WCI  34
FOND DU LAC    SUNNY     42  36  79 NE9       30.13R
SHEBOYGAN      SUNNY     41  34  76 NE9       30.12R
WEST BEND      MOSUNNY   41  36  81 N6        30.11R
JUNEAU         PTSUNNY   39  37  91 N3        30.13R
$$

LSZ147-162-281500-
LAKE SUPERIOR

STATION/POSITION TIME  TEMP    WIND        PRES    WAVE
                       AIR SEA DIR/SP/G            HT/PER
                 (UTC) (F)     (DEG/KT/KT) (MB)    (FT/S)
DEVILS ISLAND    1400   35     280/  3/  5 1022.0R
PORT WING        1330   32     290/  4/  4 1021.0R
SAXON HARBOR     1340   34     190/  6/  7 1020.3S
$$

LMZ867-665-643>646-281500-
LAKE MICHIGAN

STATION/POSITION TIME  TEMP    WIND        PRES    WAVE
                       AIR SEA DIR/SP/G            HT/PER
                 (UTC) (F)     (DEG/KT/KT) (MB)    (FT/S)
CHAMBERS ISLAND  1340   31      60/  7/  9 1020.3R
NORTHPORT PIER   1340   32      70/  6/  9 1020.7R
SISTER BAY       1336   32      60/  5/  8   N/A
KEWAUNEE LAKESHO 1348   38      40/  5/  9 1019.8R
SHEBOYGAN LAKESH 1400   37      20/ 11/ 12 1020.7R
PORT WASHINGTON  1330   42      10/  4/  8 1020.7S
MILWAUKEE LAKESH 1350   40      10/ 10/ 13   N/A
KENOSHA   LAKESH 1400   39      10/ 13/ 15 1019.6
$$

TC  - TEMPERATURE IN CELSIUS
VSB - VISIBILITY IN STATUTE MILES
WCI - WIND CHILL INDEX
HX  - HEAT INDEX





USA.gov is the U.S. government's official web portal to all federal, state and local government web resources and services.